FW9287 Weather Reports


Display with metric or nautical units.
time (UTC)temp
F
wind
direction
speed
MPH
gust
MPH
rain 1hr
in
rain 24hr
in
rain mn
in
humidity
%
barometer
mb
20260507200348 91 322 1.0 5.0 0.00 0.00 0.00 13 918.5
20260507200241 91 28 1.0 7.0 0.00 0.00 0.00 13 918.6
20260507195659 90 177 2.0 7.0 0.00 0.00 0.00 14 918.6
20260507195554 90 105 2.0 7.0 0.00 0.00 0.00 13 918.6
20260507195449 90 74 2.0 7.0 0.00 0.00 0.00 13 918.7
20260507195125 91 247 2.0 8.0 0.00 0.00 0.00 14 918.7
20260507195019 90 225 1.0 8.0 0.00 0.00 0.00 14 918.8
20260507194916 90 208 1.0 8.0 0.00 0.00 0.00 14 918.8
20260507194812 90 269 1.0 8.0 0.00 0.00 0.00 13 918.8
20260507194705 90 322 1.0 8.0 0.00 0.00 0.00 14 918.8
20260507194601 90 230 0.0 8.0 0.00 0.00 0.00 14 918.8
20260507194457 90 294 0.0 8.0 0.00 0.00 0.00 14 918.9
20260507194350 90 345 0.0 8.0 0.00 0.00 0.00 14 918.9
20260507194247 90 148 1.0 8.0 0.00 0.00 0.00 14 918.9
20260507193928 90 240 2.0 8.0 0.00 0.00 0.00 14 918.8
20260507193823 90 212 2.0 8.0 0.00 0.00 0.00 14 918.9
20260507193721 90 178 2.0 8.0 0.00 0.00 0.00 14 919.0
20260507193617 90 220 2.0 8.0 0.00 0.00 0.00 14 919.0
20260507193511 90 245 2.0 8.0 0.00 0.00 0.00 14 919.0
20260507193405 90 173 2.0 8.0 0.00 0.00 0.00 15 919.0
20260507193300 89 230 1.0 6.0 0.00 0.00 0.00 15 919.0
20260507193155 89 331 1.0 6.0 0.00 0.00 0.00 14 919.0
20260507193049 89 291 1.0 8.0 0.00 0.00 0.00 14 919.0
20260507192943 89 199 0.0 8.0 0.00 0.00 0.00 15 919.0
20260507192837 89 245 0.0 8.0 0.00 0.00 0.00 15 919.1
20260507192735 89 292 0.0 8.0 0.00 0.00 0.00 15 919.1
20260507192631 89 340 0.0 8.0 0.00 0.00 0.00 15 919.1
20260507192529 89 339 0.0 8.0 0.00 0.00 0.00 15 919.1
20260507192422 89 78 0.0 8.0 0.00 0.00 0.00 15 919.1
20260507192318 89 46 1.0 8.0 0.00 0.00 0.00 15 919.1
20260507192215 89 5 1.0 8.0 0.00 0.00 0.00 15 919.1
20260507191633 89 247 2.0 8.0 0.00 0.00 0.00 15 919.3
20260507191528 89 225 2.0 8.0 0.00 0.00 0.00 15 919.3
20260507191423 89 184 2.0 8.0 0.00 0.00 0.00 15 919.4
20260507191059 88 240 0.0 4.0 0.00 0.00 0.00 15 919.4
20260507190736 88 182 0.0 9.0 0.00 0.00 0.00 15 919.5
20260507190635 88 173 1.0 9.0 0.00 0.00 0.00 15 919.5
20260507190530 88 173 1.0 9.0 0.00 0.00 0.00 15 919.5
20260507190426 88 175 1.0 9.0 0.00 0.00 0.00 15 919.6
20260507190322 88 211 1.0 9.0 0.00 0.00 0.00 15 919.6
20260507190217 88 309 2.0 9.0 0.00 0.00 0.00 15 919.7
20260507190112 88 313 2.0 9.0 0.00 0.00 0.00 15 919.6
20260507190005 88 309 2.0 9.0 0.00 0.00 0.00 16 919.7
20260507185858 88 301 3.0 9.0 0.00 0.00 0.00 16 919.7
20260507185755 88 288 3.0 9.0 0.00 0.00 0.00 15 919.7
20260507185651 88 258 2.0 9.0 0.00 0.00 0.00 16 919.7
20260507185549 89 313 2.0 9.0 0.00 0.00 0.00 16 919.7
20260507185442 89 320 2.0 9.0 0.00 0.00 0.00 15 919.7
20260507185118 89 217 2.0 9.0 0.00 0.00 0.00 15 919.8
20260507185011 89 234 1.0 9.0 0.00 0.00 0.00 15 919.8
20260507184647 89 301 1.0 8.0 0.00 0.00 0.00 15 919.7
20260507184542 89 344 1.0 8.0 0.00 0.00 0.00 16 919.8
20260507184437 88 238 1.0 8.0 0.00 0.00 0.00 16 919.8
20260507184332 88 268 1.0 8.0 0.00 0.00 0.00 16 919.8
20260507184230 88 294 1.0 8.0 0.00 0.00 0.00 16 919.8
20260507183901 88 234 2.0 8.0 0.00 0.00 0.00 16 919.8
20260507183757 88 150 2.0 8.0 0.00 0.00 0.00 16 919.9
20260507183649 88 181 2.0 8.0 0.00 0.00 0.00 16 919.9
20260507183543 88 272 2.0 8.0 0.00 0.00 0.00 16 919.9
20260507183435 88 255 2.0 8.0 0.00 0.00 0.00 16 919.8
20260507182852 88 276 1.0 5.0 0.00 0.00 0.00 16 919.9
20260507182528 88 238 1.0 4.0 0.00 0.00 0.00 16 919.8
20260507182420 88 232 1.0 4.0 0.00 0.00 0.00 16 919.9
20260507182053 88 219 0.0 4.0 0.00 0.00 0.00 16 920.0
20260507181951 87 311 0.0 4.0 0.00 0.00 0.00 16 920.0
20260507181847 87 323 0.0 4.0 0.00 0.00 0.00 16 920.0
20260507181744 87 53 0.0 4.0 0.00 0.00 0.00 18 920.0
20260507181637 87 312 0.0 4.0 0.00 0.00 0.00 17 920.0
20260507181529 87 318 0.0 4.0 0.00 0.00 0.00 17 920.0
20260507181424 87 183 1.0 4.0 0.00 0.00 0.00 17 920.1
20260507181318 87 245 1.0 3.0 0.00 0.00 0.00 17 920.0
20260507181210 87 282 1.0 3.0 0.00 0.00 0.00 17 920.0
20260507181105 86 238 1.0 3.0 0.00 0.00 0.00 17 920.1
20260507181001 86 285 1.0 3.0 0.00 0.00 0.00 17 920.1
20260507180854 86 287 1.0 3.0 0.00 0.00 0.00 17 920.1
20260507180528 86 306 0.0 3.0 0.00 0.00 0.00 17 920.1
20260507180421 86 235 0.0 3.0 0.00 0.00 0.00 18 920.2
20260507180319 86 294 0.0 2.0 0.00 0.00 0.00 18 920.2
20260507180212 86 243 0.0 6.0 0.00 0.00 0.00 18 920.2
20260507180109 85 299 0.0 6.0 0.00 0.00 0.00 18 920.2
20260507180004 85 298 0.0 6.0 0.00 0.00 0.00 18 920.2
20260507175902 85 227 0.0 6.0 0.00 0.00 0.00 18 920.2
20260507175316 85 333 1.0 6.0 0.00 0.00 0.00 18 920.3
20260507175210 85 295 1.0 6.0 0.00 0.00 0.00 17 920.3
20260507175107 85 17 1.0 6.0 0.00 0.00 0.00 17 920.3
20260507175003 85 163 1.0 6.0 0.00 0.00 0.00 17 920.2
20260507174856 85 227 1.0 6.0 0.00 0.00 0.00 17 920.3
20260507174749 85 271 1.0 6.0 0.00 0.00 0.00 18 920.3
20260507174646 85 221 1.0 6.0 0.00 0.00 0.00 17 920.3
20260507174322 85 232 1.0 6.0 0.00 0.00 0.00 18 920.4
20260507174221 85 223 0.0 6.0 0.00 0.00 0.00 18 920.4
20260507174115 85 221 1.0 5.0 0.00 0.00 0.00 18 920.3
20260507174008 84 290 1.0 5.0 0.00 0.00 0.00 18 920.4
20260507173902 84 329 1.0 5.0 0.00 0.00 0.00 18 920.3
20260507173538 84 200 1.0 5.0 0.00 0.00 0.00 18 920.4
20260507173432 84 200 1.0 5.0 0.00 0.00 0.00 18 920.4
20260507173327 84 203 1.0 5.0 0.00 0.00 0.00 18 920.4
20260507173219 84 219 1.0 5.0 0.00 0.00 0.00 19 920.4
20260507173116 84 236 0.0 5.0 0.00 0.00 0.00 19 920.4
20260507173013 84 278 0.0 3.0 0.00 0.00 0.00 19 920.4
20260507172907 83 286 1.0 3.0 0.00 0.00 0.00 19 920.4
20260507172800 83 300 0.0 3.0 0.00 0.00 0.00 20 920.4
20260507172658 83 250 1.0 3.0 0.00 0.00 0.00 19 920.4
20260507172556 83 269 1.0 3.0 0.00 0.00 0.00 19 920.5
20260507172450 83 282 1.0 3.0 0.00 0.00 0.00 19 920.5
20260507172123 83 333 1.0 5.0 0.00 0.00 0.00 19 920.5
20260507172016 83 355 1.0 5.0 0.00 0.00 0.00 19 920.5
20260507171913 83 307 1.0 5.0 0.00 0.00 0.00 19 920.5
20260507171547 83 242 0.0 5.0 0.00 0.00 0.00 19 920.5
20260507171441 82 323 0.0 5.0 0.00 0.00 0.00 19 920.5
20260507171337 82 291 0.0 5.0 0.00 0.00 0.00 19 920.5
20260507171233 82 294 1.0 5.0 0.00 0.00 0.00 19 920.5
20260507170651 82 231 1.0 5.0 0.00 0.00 0.00 20 920.6
20260507170546 82 252 1.0 5.0 0.00 0.00 0.00 20 920.6
20260507170441 82 268 1.0 5.0 0.00 0.00 0.00 19 920.6
20260507165632 81 244 0.0 5.0 0.00 0.00 0.00 21 920.7
20260507165308 81 350 0.0 5.0 0.00 0.00 0.00 20 920.7
20260507165201 80 306 1.0 5.0 0.00 0.00 0.00 20 920.7
20260507164834 80 311 1.0 5.0 0.00 0.00 0.00 21 920.7
20260507164727 80 292 1.0 5.0 0.00 0.00 0.00 21 920.7
20260507164621 80 284 1.0 5.0 0.00 0.00 0.00 21 920.7
20260507164515 80 294 1.0 5.0 0.00 0.00 0.00 21 920.7
20260507164412 80 331 0.0 5.0 0.00 0.00 0.00 22 920.7
20260507164306 80 281 0.0 5.0 0.00 0.00 0.00 21 920.7
20260507164203 80 271 0.0 5.0 0.00 0.00 0.00 22 920.7
20260507164100 80 336 0.0 5.0 0.00 0.00 0.00 22 920.7
20260507163954 80 304 0.0 5.0 0.00 0.00 0.00 22 920.7
20260507163624 79 259 0.0 3.0 0.00 0.00 0.00 22 920.8
20260507163518 79 284 0.0 3.0 0.00 0.00 0.00 23 920.8
20260507163414 79 267 1.0 3.0 0.00 0.00 0.00 22 920.8
20260507163308 79 284 1.0 3.0 0.00 0.00 0.00 22 920.8
20260507163203 79 300 1.0 3.0 0.00 0.00 0.00 23 920.9
20260507163056 79 296 1.0 3.0 0.00 0.00 0.00 22 920.8
20260507162729 78 290 1.0 3.0 0.00 0.00 0.00 23 920.9
20260507162621 78 227 1.0 3.0 0.00 0.00 0.00 24 921.0
20260507162519 78 244 1.0 3.0 0.00 0.00 0.00 23 920.9
20260507162411 78 249 1.0 3.0 0.00 0.00 0.00 23 920.9
20260507162307 78 240 1.0 3.0 0.00 0.00 0.00 23 920.9
20260507162158 78 239 0.0 3.0 0.00 0.00 0.00 22 920.9
20260507162052 78 248 0.0 3.0 0.00 0.00 0.00 23 920.9
20260507161947 78 274 0.0 3.0 0.00 0.00 0.00 23 920.9
20260507161842 78 242 0.0 3.0 0.00 0.00 0.00 23 921.0
20260507161516 77 283 0.0 3.0 0.00 0.00 0.00 24 920.9
20260507161409 77 263 0.0 3.0 0.00 0.00 0.00 24 920.9
20260507161306 77 270 0.0 3.0 0.00 0.00 0.00 24 920.9
20260507161204 77 270 0.0 3.0 0.00 0.00 0.00 23 921.0
20260507161059 77 291 0.0 2.0 0.00 0.00 0.00 23 921.0
20260507160956 77 287 0.0 2.0 0.00 0.00 0.00 24 920.9
20260507160849 76 287 0.0 2.0 0.00 0.00 0.00 24 921.0
20260507160744 76 280 0.0 2.0 0.00 0.00 0.00 25 921.0
20260507160640 76 291 0.0 2.0 0.00 0.00 0.00 25 921.0
20260507160533 76 302 0.0 2.0 0.00 0.00 0.00 24 921.0
20260507160426 76 346 0.0 3.0 0.00 0.00 0.00 25 921.0
20260507160321 76 274 0.0 3.0 0.00 0.00 0.00 25 921.0
20260507160216 76 304 0.0 3.0 0.00 0.00 0.00 25 921.0
20260507160110 76 300 1.0 3.0 0.00 0.00 0.00 25 921.1
20260507160003 76 286 0.0 3.0 0.00 0.00 0.00 25 921.0
20260507155857 75 240 1.0 3.0 0.00 0.00 0.00 25 921.1
20260507155755 75 306 1.0 3.0 0.00 0.00 0.00 24 921.1
20260507155648 75 350 1.0 3.0 0.00 0.00 0.00 25 921.1
20260507155543 75 342 1.0 3.0 0.00 0.00 0.00 25 921.1
20260507155438 75 275 1.0 3.0 0.00 0.00 0.00 26 921.1
20260507155335 75 284 1.0 3.0 0.00 0.00 0.00 26 921.2
20260507155230 75 269 0.0 3.0 0.00 0.00 0.00 26 921.1
20260507154906 74 327 0.0 3.0 0.00 0.00 0.00 25 921.2
20260507154803 74 344 0.0 3.0 0.00 0.00 0.00 25 921.2
20260507154655 74 355 0.0 3.0 0.00 0.00 0.00 27 921.2
20260507154549 74 308 0.0 3.0 0.00 0.00 0.00 26 921.2
20260507154447 74 294 0.0 3.0 0.00 0.00 0.00 26 921.2
20260507154343 74 288 0.0 3.0 0.00 0.00 0.00 26 921.2
20260507154239 74 265 0.0 3.0 0.00 0.00 0.00 26 921.2
20260507154133 74 284 0.0 3.0 0.00 0.00 0.00 27 921.2
20260507153808 73 265 0.0 3.0 0.00 0.00 0.00 27 921.2
20260507153701 73 302 0.0 3.0 0.00 0.00 0.00 27 921.2
20260507153558 73 301 0.0 3.0 0.00 0.00 0.00 27 921.2
20260507153451 73 304 0.0 2.0 0.00 0.00 0.00 27 921.2
20260507153345 73 288 0.0 2.0 0.00 0.00 0.00 28 921.2
20260507153239 73 235 0.0 2.0 0.00 0.00 0.00 29 921.2
20260507153133 72 270 0.0 2.0 0.00 0.00 0.00 29 921.2
20260507152809 72 284 0.0 3.0 0.00 0.00 0.00 28 921.2
20260507152703 72 240 0.0 3.0 0.00 0.00 0.00 28 921.2
20260507152602 72 259 0.0 3.0 0.00 0.00 0.00 28 921.2
20260507152455 71 258 0.0 3.0 0.00 0.00 0.00 28 921.3
20260507152350 71 243 0.0 3.0 0.00 0.00 0.00 28 921.2
20260507152247 71 238 0.0 3.0 0.00 0.00 0.00 28 921.2
20260507152144 71 323 0.0 3.0 0.00 0.00 0.00 29 921.2
20260507152041 71 323 0.0 3.0 0.00 0.00 0.00 29 921.2
20260507151235 70 256 1.0 3.0 0.00 0.00 0.00 28 921.2
20260507150218 69 243 1.0 3.0 0.00 0.00 0.00 29 921.2
20260507150113 69 237 1.0 3.0 0.00 0.00 0.00 30 921.2
20260507150009 69 243 1.0 3.0 0.00 0.00 0.00 30 921.2
20260507145905 69 242 1.0 3.0 0.00 0.00 0.00 29 921.2
20260507145800 69 229 1.0 3.0 0.00 0.00 0.00 29 921.2
20260507145216 69 213 1.0 3.0 0.00 0.00 0.00 30 921.2
20260507144854 68 233 1.0 3.0 0.00 0.00 0.00 30 921.2
20260507144528 68 213 0.0 3.0 0.00 0.00 0.00 30 921.2
20260507144423 68 244 0.0 3.0 0.00 0.00 0.00 31 921.2
20260507144316 68 244 1.0 3.0 0.00 0.00 0.00 30 921.2
20260507144208 68 217 1.0 3.0 0.00 0.00 0.00 31 921.1
20260507144104 68 232 1.0 3.0 0.00 0.00 0.00 31 921.2
20260507143959 68 239 1.0 3.0 0.00 0.00 0.00 32 921.2
20260507143629 68 241 1.0 3.0 0.00 0.00 0.00 33 921.1
20260507143523 67 241 1.0 3.0 0.00 0.00 0.00 32 921.2
20260507143418 67 224 1.0 3.0 0.00 0.00 0.00 32 921.2
20260507143315 67 240 1.0 3.0 0.00 0.00 0.00 32 921.1
20260507143212 67 233 1.0 3.0 0.00 0.00 0.00 31 921.2
20260507142632 67 235 1.0 3.0 0.00 0.00 0.00 33 921.2
20260507142524 67 260 1.0 2.0 0.00 0.00 0.00 33 921.2
20260507142200 66 241 1.0 2.0 0.00 0.00 0.00 33 921.2
20260507142057 66 234 1.0 2.0 0.00 0.00 0.00 34 921.1
20260507141950 66 228 1.0 2.0 0.00 0.00 0.00 33 921.2
20260507141842 66 250 1.0 2.0 0.00 0.00 0.00 33 921.1
20260507141520 65 241 0.0 2.0 0.00 0.00 0.00 33 921.1
20260507141417 65 241 0.0 2.0 0.00 0.00 0.00 34 921.1
20260507141312 65 242 0.0 2.0 0.00 0.00 0.00 34 921.1
20260507141210 65 248 0.0 1.0 0.00 0.00 0.00 34 921.0
20260507140844 64 284 0.0 1.0 0.00 0.00 0.00 35 921.1
20260507140739 64 290 0.0 1.0 0.00 0.00 0.00 35 921.0
20260507140634 64 295 0.0 1.0 0.00 0.00 0.00 36 921.0
20260507140527 64 295 0.0 1.0 0.00 0.00 0.00 36 921.0
20260507140421 63 332 0.0 0.0 0.00 0.00 0.00 36 921.0
20260507140314 63 332 0.0 0.0 0.00 0.00 0.00 36 921.0
20260507140208 63 332 0.0 0.0 0.00 0.00 0.00 36 921.0
20260507140101 63 332 0.0 1.0 0.00 0.00 0.00 36 921.0
20260507135740 63 355 0.0 0.0 0.00 0.00 0.00 38 920.9
20260507135637 62 355 0.0 0.0 0.00 0.00 0.00 38 921.0
20260507135535 62 355 0.0 0.0 0.00 0.00 0.00 38 920.9
20260507135431 62 355 0.0 0.0 0.00 0.00 0.00 38 920.9
20260507135324 62 355 0.0 0.0 0.00 0.00 0.00 38 920.9
20260507135004 62 355 0.0 0.0 0.00 0.00 0.00 37 920.9
20260507134901 61 355 0.0 0.0 0.00 0.00 0.00 37 920.9
20260507134755 61 355 0.0 0.0 0.00 0.00 0.00 37 920.9
20260507134649 61 355 0.0 0.0 0.00 0.00 0.00 37 920.9
20260507134545 61 355 0.0 0.0 0.00 0.00 0.00 37 920.9
20260507134218 61 355 0.0 0.0 0.00 0.00 0.00 37 920.9
20260507133854 60 355 0.0 0.0 0.00 0.00 0.00 38 920.8
20260507133747 60 355 0.0 0.0 0.00 0.00 0.00 37 920.8
20260507133645 60 355 0.0 2.0 0.00 0.00 0.00 37 920.8
20260507133541 60 355 0.0 2.0 0.00 0.00 0.00 37 920.8
20260507133437 60 355 0.0 2.0 0.00 0.00 0.00 37 920.8
20260507133112 60 355 0.0 2.0 0.00 0.00 0.00 37 920.7
20260507133004 60 355 0.0 2.0 0.00 0.00 0.00 37 920.8
20260507132857 60 355 0.0 2.0 0.00 0.00 0.00 37 920.7
20260507132753 60 355 0.0 2.0 0.00 0.00 0.00 37 920.8
20260507132648 60 355 0.0 2.0 0.00 0.00 0.00 38 920.8
20260507132543 60 355 0.0 2.0 0.00 0.00 0.00 38 920.7
20260507132435 60 5 0.0 2.0 0.00 0.00 0.00 38 920.7
20260507132332 60 5 0.0 2.0 0.00 0.00 0.00 38 920.7
20260507132007 60 11 0.0 1.0 0.00 0.00 0.00 38 920.7
20260507131905 60 355 0.0 1.0 0.00 0.00 0.00 38 920.7
20260507131758 59 5 0.0 1.0 0.00 0.00 0.00 38 920.7
20260507131652 59 5 0.0 1.0 0.00 0.00 0.00 38 920.7
20260507131325 59 355 0.0 1.0 0.00 0.00 0.00 38 920.6
20260507131219 59 355 0.0 1.0 0.00 0.00 0.00 38 920.7
20260507131112 59 355 0.0 1.0 0.00 0.00 0.00 38 920.6
20260507131010 59 355 0.0 1.0 0.00 0.00 0.00 38 920.7
20260507130906 59 355 0.0 0.0 0.00 0.00 0.00 38 920.7
20260507130540 59 355 0.0 0.0 0.00 0.00 0.00 38 920.6
20260507130435 59 355 0.0 0.0 0.00 0.00 0.00 38 920.6
20260507130329 59 355 0.0 0.0 0.00 0.00 0.00 37 920.6
20260507130008 59 355 0.0 0.0 0.00 0.00 0.00 37 920.6
20260507125904 59 355 0.0 1.0 0.00 0.00 0.00 37 920.6
20260507125800 59 355 0.0 1.0 0.00 0.00 0.00 37 920.6
20260507125653 59 355 0.0 1.0 0.00 0.00 0.00 37 920.6
20260507125551 59 355 0.0 1.0 0.00 0.00 0.00 37 920.6
20260507125448 59 355 0.0 1.0 0.00 0.00 0.00 37 920.5
20260507125127 59 355 0.0 1.0 0.00 0.00 0.00 37 920.5
20260507125023 59 355 0.0 1.0 0.00 0.00 0.00 37 920.6
20260507124921 59 355 0.0 0.0 0.00 0.00 0.00 37 920.5
20260507124558 59 355 0.0 1.0 0.00 0.00 0.00 38 920.6
20260507124451 59 355 0.0 1.0 0.00 0.00 0.00 37 920.5
20260507124347 59 355 0.0 1.0 0.00 0.00 0.00 37 920.5
20260507124244 59 355 0.0 1.0 0.00 0.00 0.00 37 920.5
20260507124138 59 355 0.0 1.0 0.00 0.00 0.00 37 920.5
20260507124031 59 355 0.0 1.0 0.00 0.00 0.00 37 920.5
20260507123923 59 355 0.0 1.0 0.00 0.00 0.00 37 920.5
20260507123820 59 355 0.0 1.0 0.00 0.00 0.00 37 920.5
20260507123717 59 355 0.0 0.0 0.00 0.00 0.00 37 920.5
20260507123610 59 355 0.0 0.0 0.00 0.00 0.00 37 920.5
20260507123244 59 355 0.0 1.0 0.00 0.00 0.00 37 920.5
20260507123137 59 355 0.0 1.0 0.00 0.00 0.00 37 920.4
20260507123036 59 355 0.0 1.0 0.00 0.00 0.00 37 920.5
20260507122930 59 355 0.0 1.0 0.00 0.00 0.00 37 920.5
20260507122823 59 355 0.0 1.0 0.00 0.00 0.00 37 920.5
20260507122715 59 355 0.0 1.0 0.00 0.00 0.00 37 920.4
20260507122611 59 355 0.0 1.0 0.00 0.00 0.00 37 920.5
20260507122503 59 355 0.0 1.0 0.00 0.00 0.00 37 920.4
20260507122358 60 355 0.0 1.0 0.00 0.00 0.00 37 920.4
20260507122255 60 355 0.0 1.0 0.00 0.00 0.00 37 920.4
20260507122149 60 355 0.0 1.0 0.00 0.00 0.00 37 920.4
20260507122045 60 355 0.0 1.0 0.00 0.00 0.00 37 920.4
20260507121939 60 355 0.0 1.0 0.00 0.00 0.00 37 920.4
20260507121833 60 355 0.0 0.0 0.00 0.00 0.00 37 920.4
20260507121727 60 355 0.0 0.0 0.00 0.00 0.00 37 920.4
20260507121620 60 355 0.0 0.0 0.00 0.00 0.00 37 920.4
20260507121515 60 355 0.0 0.0 0.00 0.00 0.00 36 920.4
20260507121153 60 355 0.0 0.0 0.00 0.00 0.00 36 920.4
20260507121048 60 355 0.0 0.0 0.00 0.00 0.00 36 920.4
20260507120945 60 355 0.0 0.0 0.00 0.00 0.00 36 920.4
20260507120841 60 355 0.0 0.0 0.00 0.00 0.00 36 920.4
20260507120734 60 355 0.0 0.0 0.00 0.00 0.00 36 920.4
20260507120626 60 355 0.0 1.0 0.00 0.00 0.00 36 920.4
20260507120520 60 355 0.0 1.0 0.00 0.00 0.00 36 920.4
20260507120418 60 355 0.0 1.0 0.00 0.00 0.00 36 920.4
20260507120055 60 355 0.0 1.0 0.00 0.00 0.00 36 920.4
20260507115948 60 355 0.0 1.0 0.00 0.00 0.00 36 920.4
20260507115843 60 355 0.0 1.0 0.00 0.00 0.00 36 920.4
20260507115740 60 355 0.0 1.0 0.00 0.00 0.00 36 920.4
20260507115157 60 355 0.0 1.0 0.00 0.00 0.00 36 920.4
20260507115049 60 355 0.0 1.0 0.00 0.00 0.00 36 920.4
20260507114947 60 355 0.0 1.0 0.00 0.00 0.00 36 920.4
20260507114844 60 355 0.0 1.0 0.00 0.00 0.00 36 920.4
20260507114740 60 355 0.0 1.0 0.00 0.00 0.00 36 920.4
20260507114635 60 355 0.0 1.0 0.00 0.00 0.00 36 920.4
20260507114311 60 355 0.0 1.0 0.00 0.00 0.00 36 920.3
20260507114208 60 355 0.0 1.0 0.00 0.00 0.00 36 920.3
20260507114101 60 355 0.0 1.0 0.00 0.00 0.00 36 920.3
20260507113959 60 355 0.0 1.0 0.00 0.00 0.00 36 920.3
20260507113853 60 355 0.0 1.0 0.00 0.00 0.00 36 920.4
20260507113749 60 355 0.0 1.0 0.00 0.00 0.00 36 920.4
20260507113645 60 355 0.0 1.0 0.00 0.00 0.00 36 920.3
20260507113541 60 355 0.0 1.0 0.00 0.00 0.00 36 920.4
20260507113434 60 355 0.0 1.0 0.00 0.00 0.00 36 920.4
20260507113108 60 355 0.0 0.0 0.00 0.00 0.00 36 920.4
20260507113001 60 355 0.0 0.0 0.00 0.00 0.00 36 920.4
20260507112853 60 355 0.0 0.0 0.00 0.00 0.00 36 920.4
20260507112747 60 355 0.0 0.0 0.00 0.00 0.00 36 920.4
20260507112641 60 355 0.0 0.0 0.00 0.00 0.00 36 920.4
20260507112538 60 355 0.0 0.0 0.00 0.00 0.00 36 920.4
20260507112214 60 355 0.0 0.0 0.00 0.00 0.00 36 920.3
20260507112107 60 355 0.0 0.0 0.00 0.00 0.00 36 920.3
20260507112004 60 355 0.0 0.0 0.00 0.00 0.00 36 920.3
20260507111638 60 355 0.0 0.0 0.00 0.00 0.00 36 920.3
20260507111533 60 355 0.0 0.0 0.00 0.00 0.00 36 920.3
20260507111427 60 355 0.0 2.0 0.00 0.00 0.00 36 920.3
20260507111107 60 355 0.0 2.0 0.00 0.00 0.00 36 920.3
20260507110739 60 355 0.0 2.0 0.00 0.00 0.00 36 920.3
20260507110633 60 355 0.0 2.0 0.00 0.00 0.00 36 920.3
20260507110304 60 11 0.0 2.0 0.00 0.00 0.00 36 920.4
20260507110158 60 14 0.0 2.0 0.00 0.00 0.00 36 920.3
20260507105827 60 5 0.0 1.0 0.00 0.00 0.00 36 920.4
20260507105721 60 5 0.0 1.0 0.00 0.00 0.00 36 920.4
20260507105616 60 355 0.0 1.0 0.00 0.00 0.00 36 920.3
20260507105510 60 355 0.0 1.0 0.00 0.00 0.00 36 920.4
20260507105402 60 355 0.0 1.0 0.00 0.00 0.00 36 920.4
20260507105257 60 355 0.0 1.0 0.00 0.00 0.00 36 920.4
20260507104928 60 355 0.0 1.0 0.00 0.00 0.00 36 920.3
20260507104822 60 355 0.0 1.0 0.00 0.00 0.00 36 920.4
20260507104715 60 355 0.0 1.0 0.00 0.00 0.00 36 920.3
20260507104610 60 350 0.0 1.0 0.00 0.00 0.00 36 920.4
20260507104504 60 350 0.0 1.0 0.00 0.00 0.00 36 920.4
20260507104358 60 350 0.0 1.0 0.00 0.00 0.00 36 920.4
20260507104252 60 355 0.0 1.0 0.00 0.00 0.00 36 920.4
20260507104145 60 355 0.0 1.0 0.00 0.00 0.00 36 920.4
20260507104040 60 355 0.0 1.0 0.00 0.00 0.00 36 920.4
20260507103935 60 355 0.0 1.0 0.00 0.00 0.00 36 920.4
20260507103831 60 348 0.0 1.0 0.00 0.00 0.00 36 920.4
20260507103727 60 333 0.0 1.0 0.00 0.00 0.00 36 920.4
20260507103619 60 333 0.0 1.0 0.00 0.00 0.00 36 920.4
20260507103511 60 330 0.0 1.0 0.00 0.00 0.00 36 920.3
20260507103408 60 319 0.0 1.0 0.00 0.00 0.00 36 920.4
20260507103301 61 319 0.0 1.0 0.00 0.00 0.00 36 920.4
20260507103157 61 300 0.0 1.0 0.00 0.00 0.00 36 920.4
20260507103051 61 262 0.0 1.0 0.00 0.00 0.00 35 920.4
20260507102947 61 251 0.0 1.0 0.00 0.00 0.00 35 920.4
20260507102844 61 251 0.0 1.0 0.00 0.00 0.00 35 920.4
20260507102741 61 250 0.0 1.0 0.00 0.00 0.00 35 920.3
20260507102414 61 238 0.0 0.0 0.00 0.00 0.00 35 920.4
20260507102308 61 236 0.0 0.0 0.00 0.00 0.00 35 920.4
20260507101941 61 236 0.0 0.0 0.00 0.00 0.00 35 920.3
20260507101835 61 236 0.0 0.0 0.00 0.00 0.00 35 920.3
20260507101728 61 236 0.0 0.0 0.00 0.00 0.00 35 920.3
20260507101359 62 236 0.0 0.0 0.00 0.00 0.00 34 920.3
20260507100812 62 236 0.0 0.0 0.00 0.00 0.00 34 920.2
20260507100442 62 236 0.0 0.0 0.00 0.00 0.00 34 920.3
20260507100340 62 236 0.0 0.0 0.00 0.00 0.00 34 920.2
20260507100233 63 236 0.0 0.0 0.00 0.00 0.00 33 920.3
20260507100126 63 236 0.0 0.0 0.00 0.00 0.00 33 920.2
20260507100021 63 236 0.0 0.0 0.00 0.00 0.00 33 920.2
20260507095919 63 236 0.0 0.0 0.00 0.00 0.00 33 920.2
20260507095817 63 236 0.0 0.0 0.00 0.00 0.00 33 920.2
20260507095712 63 236 0.0 0.0 0.00 0.00 0.00 33 920.3
20260507095605 63 236 0.0 0.0 0.00 0.00 0.00 33 920.3
20260507095500 63 236 0.0 1.0 0.00 0.00 0.00 33 920.2
20260507095133 64 236 0.0 1.0 0.00 0.00 0.00 33 920.3
20260507095027 64 240 0.0 1.0 0.00 0.00 0.00 33 920.2
20260507094920 64 240 0.0 0.0 0.00 0.00 0.00 32 920.2
20260507094555 64 240 0.0 0.0 0.00 0.00 0.00 32 920.2
20260507094451 64 240 0.0 1.0 0.00 0.00 0.00 32 920.3
20260507094345 64 240 0.0 1.0 0.00 0.00 0.00 32 920.2
20260507094240 64 241 0.0 1.0 0.00 0.00 0.00 32 920.2
20260507094132 64 293 0.0 0.0 0.00 0.00 0.00 31 920.2
20260507094027 64 293 0.0 0.0 0.00 0.00 0.00 31 920.2
20260507093925 64 293 0.0 0.0 0.00 0.00 0.00 32 920.2
20260507093823 64 293 0.0 0.0 0.00 0.00 0.00 32 920.2
20260507093716 65 293 0.0 0.0 0.00 0.00 0.00 32 920.2
20260507093613 65 293 0.0 0.0 0.00 0.00 0.00 31 920.3
20260507093508 65 293 0.0 0.0 0.00 0.00 0.00 31 920.2
20260507093144 65 293 0.0 0.0 0.00 0.00 0.00 31 920.3
20260507093037 65 293 0.0 0.0 0.00 0.00 0.00 31 920.2
20260507092932 65 293 0.0 3.0 0.00 0.00 0.00 31 920.2
20260507092827 65 293 0.0 3.0 0.00 0.00 0.00 31 920.2
20260507092508 65 293 0.0 3.0 0.00 0.00 0.00 30 920.2
20260507092402 65 277 0.0 3.0 0.00 0.00 0.00 30 920.2
20260507092032 65 276 0.0 2.0 0.00 0.00 0.00 30 920.3
20260507091708 65 242 0.0 2.0 0.00 0.00 0.00 30 920.3
20260507091604 66 250 0.0 2.0 0.00 0.00 0.00 30 920.2
20260507091459 66 256 0.0 2.0 0.00 0.00 0.00 30 920.2
20260507091357 66 251 0.0 2.0 0.00 0.00 0.00 30 920.2
20260507091249 66 320 0.0 2.0 0.00 0.00 0.00 30 920.3
20260507091141 66 329 0.0 2.0 0.00 0.00 0.00 30 920.2
20260507090813 66 346 1.0 2.0 0.00 0.00 0.00 29 920.2
20260507090445 66 351 1.0 2.0 0.00 0.00 0.00 29 920.2
20260507090343 66 351 1.0 2.0 0.00 0.00 0.00 29 920.2
20260507085759 66 265 0.0 4.0 0.00 0.00 0.00 30 920.3
20260507085653 66 262 0.0 4.0 0.00 0.00 0.00 30 920.2
20260507085546 66 333 0.0 4.0 0.00 0.00 0.00 30 920.2
20260507085439 66 21 1.0 4.0 0.00 0.00 0.00 30 920.2
20260507085334 66 29 1.0 4.0 0.00 0.00 0.00 30 920.2
20260507085009 66 5 1.0 4.0 0.00 0.00 0.00 30 920.2
20260507084648 66 30 2.0 4.0 0.00 0.00 0.00 30 920.3
20260507084545 66 37 2.0 4.0 0.00 0.00 0.00 30 920.2
20260507084442 66 24 2.0 4.0 0.00 0.00 0.00 30 920.2
20260507084117 66 26 1.0 4.0 0.00 0.00 0.00 30 920.2
20260507084014 66 21 1.0 4.0 0.00 0.00 0.00 30 920.3
20260507083909 66 35 1.0 4.0 0.00 0.00 0.00 31 920.3
20260507083804 65 31 1.0 3.0 0.00 0.00 0.00 31 920.2
20260507083657 65 27 1.0 3.0 0.00 0.00 0.00 31 920.3
20260507083549 65 38 1.0 3.0 0.00 0.00 0.00 31 920.3
20260507083441 65 5 1.0 2.0 0.00 0.00 0.00 31 920.3
20260507083338 65 20 1.0 2.0 0.00 0.00 0.00 31 920.3
20260507083233 65 40 0.0 2.0 0.00 0.00 0.00 31 920.3
20260507083128 65 18 0.0 2.0 0.00 0.00 0.00 31 920.3
20260507083021 65 18 0.0 2.0 0.00 0.00 0.00 31 920.3
20260507082917 65 5 0.0 2.0 0.00 0.00 0.00 31 920.3
20260507082552 66 5 0.0 2.0 0.00 0.00 0.00 31 920.2
20260507082447 66 25 0.0 1.0 0.00 0.00 0.00 31 920.2
20260507082126 66 24 0.0 1.0 0.00 0.00 0.00 31 920.3
20260507081802 66 33 0.0 1.0 0.00 0.00 0.00 31 920.3
20260507081655 66 33 0.0 2.0 0.00 0.00 0.00 31 920.2
20260507081549 66 33 0.0 2.0 0.00 0.00 0.00 31 920.3
20260507081443 66 33 0.0 2.0 0.00 0.00 0.00 31 920.3
20260507081337 66 33 0.0 2.0 0.00 0.00 0.00 31 920.3
20260507081013 66 36 0.0 2.0 0.00 0.00 0.00 31 920.3
20260507080907 65 36 0.0 2.0 0.00 0.00 0.00 31 920.3
20260507080803 66 47 0.0 2.0 0.00 0.00 0.00 31 920.2
20260507080658 65 47 0.0 3.0 0.00 0.00 0.00 31 920.2
20260507080552 65 47 0.0 3.0 0.00 0.00 0.00 31 920.3
20260507080446 65 47 0.0 3.0 0.00 0.00 0.00 31 920.3
20260507080122 65 43 0.0 3.0 0.00 0.00 0.00 31 920.3
20260507080018 65 40 0.0 3.0 0.00 0.00 0.00 31 920.3
20260507075916 66 28 0.0 3.0 0.00 0.00 0.00 31 920.3
20260507075814 66 27 0.0 3.0 0.00 0.00 0.00 31 920.3
20260507075710 66 29 0.0 3.0 0.00 0.00 0.00 31 920.3
20260507075604 66 29 1.0 3.0 0.00 0.00 0.00 31 920.3
20260507075244 66 29 1.0 3.0 0.00 0.00 0.00 31 920.3
20260507074916 66 32 1.0 3.0 0.00 0.00 0.00 31 920.2
20260507074810 66 29 1.0 3.0 0.00 0.00 0.00 31 920.3
20260507074707 66 23 1.0 2.0 0.00 0.00 0.00 31 920.2
20260507074604 66 11 0.0 2.0 0.00 0.00 0.00 31 920.2
20260507074459 66 33 0.0 2.0 0.00 0.00 0.00 31 920.2
20260507074355 66 36 0.0 2.0 0.00 0.00 0.00 30 920.2
20260507074248 66 39 0.0 2.0 0.00 0.00 0.00 30 920.2
20260507074144 66 24 0.0 2.0 0.00 0.00 0.00 30 920.2
20260507073819 66 40 0.0 2.0 0.00 0.00 0.00 30 920.2
20260507073714 66 41 0.0 2.0 0.00 0.00 0.00 30 920.2
20260507073612 66 40 0.0 2.0 0.00 0.00 0.00 30 920.2
20260507073250 67 22 0.0 1.0 0.00 0.00 0.00 30 920.2
20260507073145 67 5 0.0 1.0 0.00 0.00 0.00 30 920.2
20260507072817 67 245 0.0 0.0 0.00 0.00 0.00 29 920.2
20260507072711 67 245 0.0 0.0 0.00 0.00 0.00 29 920.2
20260507072605 67 245 0.0 0.0 0.00 0.00 0.00 29 920.1
20260507072503 67 245 0.0 0.0 0.00 0.00 0.00 29 920.2
20260507072400 67 245 0.0 0.0 0.00 0.00 0.00 29 920.2
20260507072037 68 245 0.0 0.0 0.00 0.00 0.00 29 920.2
20260507071930 68 245 0.0 0.0 0.00 0.00 0.00 29 920.2
20260507071827 68 245 0.0 0.0 0.00 0.00 0.00 29 920.2
20260507071722 68 245 0.0 0.0 0.00 0.00 0.00 29 920.1
20260507071620 68 245 0.0 0.0 0.00 0.00 0.00 28 920.1
20260507071516 68 245 0.0 3.0 0.00 0.00 0.00 28 920.1
20260507071414 68 245 0.0 3.0 0.00 0.00 0.00 28 920.1
20260507071309 68 245 0.0 3.0 0.00 0.00 0.00 28 920.1
20260507070944 69 245 0.0 3.0 0.00 0.00 0.00 28 920.0
20260507070837 69 238 0.0 3.0 0.00 0.00 0.00 28 920.0
20260507070733 69 238 0.0 3.0 0.00 0.00 0.00 27 920.0
20260507070413 69 261 0.0 3.0 0.00 0.00 0.00 28 920.0
20260507070308 70 249 0.0 3.0 0.00 0.00 0.00 27 919.9
20260507070203 70 229 0.0 3.0 0.00 0.00 0.00 27 919.9
20260507065838 70 225 0.0 3.0 0.00 0.00 0.00 27 919.9
20260507065732 70 225 0.0 3.0 0.00 0.00 0.00 27 919.9
20260507065630 70 222 0.0 3.0 0.00 0.00 0.00 27 919.8
20260507065524 70 238 0.0 2.0 0.00 0.00 0.00 27 919.8
20260507065156 70 267 0.0 3.0 0.00 0.00 0.00 27 919.8
20260507064831 70 267 0.0 3.0 0.00 0.00 0.00 27 919.8
20260507064729 71 267 0.0 3.0 0.00 0.00 0.00 26 919.8
20260507064624 71 267 0.0 3.0 0.00 0.00 0.00 26 919.8
20260507064520 71 267 0.0 3.0 0.00 0.00 0.00 26 919.8
20260507064157 71 10 1.0 3.0 0.00 0.00 0.00 26 919.7
20260507063832 71 211 1.0 3.0 0.00 0.00 0.00 26 919.7
20260507063725 71 258 1.0 3.0 0.00 0.00 0.00 26 919.7
20260507063618 71 22 1.0 3.0 0.00 0.00 0.00 26 919.7
20260507063512 71 23 1.0 4.0 0.00 0.00 0.00 26 919.6
20260507063410 71 24 1.0 4.0 0.00 0.00 0.00 26 919.6
20260507063306 71 26 1.0 4.0 0.00 0.00 0.00 26 919.6
20260507063159 71 22 1.0 4.0 0.00 0.00 0.00 26 919.7
20260507063057 71 17 1.0 4.0 0.00 0.00 0.00 26 919.7
20260507062955 71 25 1.0 4.0 0.00 0.00 0.00 26 919.6
20260507062849 71 28 1.0 4.0 0.00 0.00 0.00 26 919.6
20260507062743 71 15 1.0 4.0 0.00 0.00 0.00 26 919.6
20260507062637 71 25 1.0 4.0 0.00 0.00 0.00 26 919.6
20260507062531 71 31 1.0 4.0 0.00 0.00 0.00 26 919.6
20260507062428 71 32 1.0 4.0 0.00 0.00 0.00 26 919.6
20260507062324 71 22 1.0 4.0 0.00 0.00 0.00 26 919.7
20260507062216 72 20 1.0 4.0 0.00 0.00 0.00 26 919.6
20260507062112 72 25 1.0 4.0 0.00 0.00 0.00 26 919.6
20260507062006 72 38 1.0 4.0 0.00 0.00 0.00 26 919.6
20260507061859 72 9 1.0 4.0 0.00 0.00 0.00 26 919.6
20260507061754 72 11 1.0 4.0 0.00 0.00 0.00 26 919.5
20260507061217 72 28 1.0 3.0 0.00 0.00 0.00 26 919.5
20260507061110 72 30 1.0 3.0 0.00 0.00 0.00 26 919.6
20260507061005 72 31 1.0 3.0 0.00 0.00 0.00 26 919.5
20260507060900 72 24 1.0 3.0 0.00 0.00 0.00 25 919.5
20260507060535 73 32 0.0 2.0 0.00 0.00 0.00 25 919.5
20260507060431 73 13 0.0 2.0 0.00 0.00 0.00 25 919.5
20260507060326 73 23 0.0 2.0 0.00 0.00 0.00 25 919.5
20260507060224 73 25 0.0 1.0 0.00 0.00 0.00 25 919.5
20260507060117 73 22 0.0 1.0 0.00 0.00 0.00 25 919.5
20260507060015 73 34 0.0 1.0 0.00 0.00 0.00 25 919.5
20260507055912 73 44 0.0 1.0 0.00 0.00 0.00 25 919.5
20260507055805 73 44 0.0 0.0 0.00 0.00 0.00 25 919.4
20260507055701 73 44 0.0 0.0 0.00 0.00 0.00 25 919.5
20260507055557 73 44 0.0 3.0 0.00 0.00 0.00 25 919.5
20260507055450 73 44 0.0 4.0 0.00 0.00 0.00 25 919.5
20260507055345 73 44 1.0 4.0 0.00 0.00 0.00 25 919.5
20260507055020 73 44 1.0 4.0 0.00 0.00 0.00 25 919.4
20260507054914 73 44 1.0 4.0 0.00 0.00 0.00 25 919.4
20260507054808 73 44 1.0 4.0 0.00 0.00 0.00 25 919.5
20260507054441 73 50 1.0 4.0 0.00 0.00 0.00 25 919.4
20260507054333 73 46 1.0 4.0 0.00 0.00 0.00 25 919.4
20260507054226 73 49 1.0 4.0 0.00 0.00 0.00 25 919.4
20260507054120 73 46 1.0 4.0 0.00 0.00 0.00 25 919.4
20260507054014 73 46 2.0 4.0 0.00 0.00 0.00 25 919.4
20260507053649 73 54 2.0 4.0 0.00 0.00 0.00 25 919.4
20260507053544 73 46 2.0 4.0 0.00 0.00 0.00 25 919.4
20260507053439 73 60 2.0 3.0 0.00 0.00 0.00 25 919.4
20260507053335 73 57 2.0 3.0 0.00 0.00 0.00 25 919.4
20260507053227 73 61 1.0 3.0 0.00 0.00 0.00 25 919.4
20260507053121 73 48 1.0 3.0 0.00 0.00 0.00 25 919.4
20260507053018 73 50 1.0 3.0 0.00 0.00 0.00 25 919.4
20260507052657 73 50 1.0 3.0 0.00 0.00 0.00 25 919.4
20260507052550 73 54 1.0 2.0 0.00 0.00 0.00 25 919.4
20260507052447 73 67 1.0 2.0 0.00 0.00 0.00 25 919.4
20260507052342 73 92 1.0 2.0 0.00 0.00 0.00 25 919.5
20260507052235 73 78 1.0 2.0 0.00 0.00 0.00 25 919.4
20260507052133 73 62 1.0 2.0 0.00 0.00 0.00 25 919.4
20260507052026 73 88 1.0 2.0 0.00 0.00 0.00 25 919.4
20260507051923 73 81 1.0 2.0 0.00 0.00 0.00 25 919.4
20260507051817 73 82 1.0 2.0 0.00 0.00 0.00 25 919.4
20260507051710 73 90 1.0 2.0 0.00 0.00 0.00 25 919.4
20260507051607 73 79 1.0 2.0 0.00 0.00 0.00 25 919.4
20260507051500 73 83 1.0 2.0 0.00 0.00 0.00 25 919.4
20260507051354 73 82 1.0 2.0 0.00 0.00 0.00 25 919.4
20260507051028 74 70 0.0 2.0 0.00 0.00 0.00 25 919.4
20260507050925 74 63 0.0 2.0 0.00 0.00 0.00 25 919.4
20260507050818 74 84 0.0 2.0 0.00 0.00 0.00 25 919.4
20260507050713 74 73 0.0 2.0 0.00 0.00 0.00 25 919.4
20260507050606 74 84 0.0 2.0 0.00 0.00 0.00 25 919.4
20260507050501 74 59 0.0 2.0 0.00 0.00 0.00 24 919.4
20260507050140 74 80 1.0 3.0 0.00 0.00 0.00 24 919.4
20260507050037 74 80 1.0 3.0 0.00 0.00 0.00 24 919.4
20260507045933 74 74 1.0 3.0 0.00 0.00 0.00 24 919.4
20260507045826 74 74 1.0 3.0 0.00 0.00 0.00 24 919.4
20260507045720 74 86 1.0 3.0 0.00 0.00 0.00 24 919.4
20260507045618 74 64 1.0 3.0 0.00 0.00 0.00 24 919.4
20260507045511 74 84 1.0 3.0 0.00 0.00 0.00 24 919.4
20260507045405 74 56 1.0 4.0 0.00 0.00 0.00 24 919.3
20260507045300 74 63 1.0 4.0 0.00 0.00 0.00 24 919.3
20260507045156 74 65 1.0 4.0 0.00 0.00 0.00 24 919.2
20260507045050 74 56 1.0 4.0 0.00 0.00 0.00 24 919.3
20260507044948 74 40 1.0 4.0 0.00 0.00 0.00 24 919.3
20260507044840 74 69 1.0 4.0 0.00 0.00 0.00 24 919.3
20260507044736 74 50 1.0 4.0 0.00 0.00 0.00 24 919.3
20260507044634 74 77 1.0 4.0 0.00 0.00 0.00 24 919.3
20260507044528 74 65 1.0 4.0 0.00 0.00 0.00 24 919.3
20260507044425 74 78 1.0 4.0 0.00 0.00 0.00 24 919.3
20260507044322 74 50 1.0 4.0 0.00 0.00 0.00 24 919.2
20260507044217 74 71 1.0 4.0 0.00 0.00 0.00 24 919.3
20260507044113 74 77 1.0 4.0 0.00 0.00 0.00 24 919.2
20260507044009 74 55 1.0 4.0 0.00 0.00 0.00 24 919.2
20260507043902 74 62 1.0 4.0 0.00 0.00 0.00 24 919.2
20260507043758 75 73 1.0 4.0 0.00 0.00 0.00 24 919.2
20260507043653 75 74 1.0 4.0 0.00 0.00 0.00 24 919.3
20260507043547 75 44 0.0 4.0 0.00 0.00 0.00 24 919.2
20260507043443 75 73 0.0 4.0 0.00 0.00 0.00 24 919.2
20260507043338 75 71 0.0 2.0 0.00 0.00 0.00 24 919.2
20260507043233 75 58 0.0 2.0 0.00 0.00 0.00 24 919.2
20260507043129 75 78 1.0 2.0 0.00 0.00 0.00 24 919.2
20260507042804 75 65 0.0 4.0 0.00 0.00 0.00 24 919.2
20260507042436 75 63 0.0 4.0 0.00 0.00 0.00 24 919.2
20260507042328 75 59 0.0 4.0 0.00 0.00 0.00 24 919.2
20260507042005 75 74 1.0 4.0 0.00 0.00 0.00 24 919.2
20260507041903 75 76 1.0 4.0 0.00 0.00 0.00 24 919.2
20260507041757 75 69 1.0 4.0 0.00 0.00 0.00 24 919.2
20260507041653 75 69 1.0 4.0 0.00 0.00 0.00 24 919.2
20260507041544 75 86 1.0 4.0 0.00 0.00 0.00 24 919.1
20260507041437 75 67 1.0 4.0 0.00 0.00 0.00 24 919.2
20260507041111 75 74 1.0 4.0 0.00 0.00 0.00 24 919.1
20260507041004 75 71 0.0 4.0 0.00 0.00 0.00 24 919.1
20260507040858 75 95 0.0 4.0 0.00 0.00 0.00 24 919.1
20260507040752 75 82 0.0 3.0 0.00 0.00 0.00 24 919.1
20260507040429 75 80 0.0 3.0 0.00 0.00 0.00 24 919.1
20260507040326 75 80 0.0 3.0 0.00 0.00 0.00 24 919.1
20260507040221 75 80 0.0 3.0 0.00 0.00 0.00 24 919.0
20260507040116 75 76 0.0 3.0 0.00 0.00 0.00 24 919.1
20260507040013 75 80 0.0 3.0 0.00 0.00 0.00 24 919.0
20260507035909 75 58 0.0 3.0 0.00 0.00 0.00 24 919.0
20260507035804 75 62 0.0 3.0 0.00 0.00 0.00 24 919.0
20260507035657 75 88 0.0 3.0 0.00 0.00 0.00 24 919.0
20260507035554 75 70 0.0 2.0 0.00 0.00 0.00 24 919.0
20260507035448 76 79 0.0 2.0 0.00 0.00 0.00 24 918.9
20260507035342 76 62 0.0 2.0 0.00 0.00 0.00 24 919.0
20260507035238 76 61 0.0 2.0 0.00 0.00 0.00 23 918.9
20260507035134 76 75 0.0 2.0 0.00 0.00 0.00 23 918.9
20260507035032 76 73 0.0 2.0 0.00 0.00 0.00 23 918.9
20260507034929 76 80 0.0 2.0 0.00 0.00 0.00 23 918.9
20260507034826 76 74 0.0 2.0 0.00 0.00 0.00 23 918.8
20260507034720 76 74 0.0 2.0 0.00 0.00 0.00 23 918.9
20260507034613 76 74 0.0 2.0 0.00 0.00 0.00 23 918.9
20260507034508 76 84 0.0 2.0 0.00 0.00 0.00 23 918.9
20260507034404 76 58 0.0 2.0 0.00 0.00 0.00 23 918.8
20260507034300 76 65 0.0 2.0 0.00 0.00 0.00 23 918.8
20260507034153 76 72 0.0 2.0 0.00 0.00 0.00 23 918.8
20260507034047 76 52 0.0 2.0 0.00 0.00 0.00 23 918.8
20260507033943 76 47 0.0 2.0 0.00 0.00 0.00 23 918.8
20260507033840 76 63 0.0 2.0 0.00 0.00 0.00 23 918.8
20260507033513 76 53 0.0 2.0 0.00 0.00 0.00 23 918.7
20260507033407 76 73 0.0 2.0 0.00 0.00 0.00 23 918.7
20260507033302 77 79 0.0 2.0 0.00 0.00 0.00 23 918.7
20260507033157 77 70 0.0 2.0 0.00 0.00 0.00 23 918.7
20260507033052 77 63 0.0 2.0 0.00 0.00 0.00 23 918.7
20260507032943 77 65 0.0 2.0 0.00 0.00 0.00 22 918.6
20260507032839 77 78 0.0 2.0 0.00 0.00 0.00 22 918.7
20260507032736 77 59 0.0 2.0 0.00 0.00 0.00 22 918.6
20260507032634 77 69 0.0 2.0 0.00 0.00 0.00 22 918.6
20260507032532 77 75 0.0 2.0 0.00 0.00 0.00 22 918.6
20260507032425 77 75 0.0 2.0 0.00 0.00 0.00 22 918.6
20260507032320 77 77 0.0 2.0 0.00 0.00 0.00 22 918.5
20260507032215 77 80 0.0 2.0 0.00 0.00 0.00 22 918.6
20260507032109 77 84 0.0 2.0 0.00 0.00 0.00 22 918.6
20260507032003 77 67 0.0 1.0 0.00 0.00 0.00 22 918.5
20260507031858 77 84 0.0 1.0 0.00 0.00 0.00 22 918.5
20260507031755 77 82 0.0 1.0 0.00 0.00 0.00 22 918.4
20260507031648 78 88 0.0 1.0 0.00 0.00 0.00 22 918.5
20260507031545 78 88 0.0 1.0 0.00 0.00 0.00 22 918.4
20260507031437 78 75 0.0 1.0 0.00 0.00 0.00 22 918.4
20260507031114 78 84 0.0 1.0 0.00 0.00 0.00 21 918.4
20260507030744 78 85 0.0 1.0 0.00 0.00 0.00 21 918.3
20260507030639 78 111 0.0 0.0 0.00 0.00 0.00 21 918.3
20260507030537 78 113 0.0 0.0 0.00 0.00 0.00 21 918.3
20260507030432 79 113 0.0 1.0 0.00 0.00 0.00 21 918.3
20260507030329 79 113 0.0 1.0 0.00 0.00 0.00 21 918.2
20260507030224 79 113 0.0 1.0 0.00 0.00 0.00 21 918.2
20260507030117 79 113 0.0 1.0 0.00 0.00 0.00 21 918.2
20260507030014 79 113 0.0 1.0 0.00 0.00 0.00 21 918.2
20260507025907 79 158 0.0 1.0 0.00 0.00 0.00 21 918.2
20260507025803 79 158 0.0 1.0 0.00 0.00 0.00 21 918.3
20260507025656 79 158 0.0 1.0 0.00 0.00 0.00 21 918.3
20260507025333 79 158 0.0 0.0 0.00 0.00 0.00 21 918.2
20260507025226 79 158 0.0 0.0 0.00 0.00 0.00 21 918.1
20260507024905 79 158 0.0 1.0 0.00 0.00 0.00 21 918.1
20260507024757 79 158 0.0 4.0 0.00 0.00 0.00 20 918.1
20260507024652 80 158 0.0 4.0 0.00 0.00 0.00 20 918.1
20260507024548 80 162 0.0 4.0 0.00 0.00 0.00 20 918.1
20260507024446 80 162 0.0 4.0 0.00 0.00 0.00 20 918.1
20260507024343 80 162 0.0 4.0 0.00 0.00 0.00 20 918.0
20260507023537 80 189 1.0 5.0 0.00 0.00 0.00 20 917.9
20260507023433 80 196 1.0 5.0 0.00 0.00 0.00 20 918.0
20260507023330 80 196 2.0 5.0 0.00 0.00 0.00 20 917.9
20260507023226 80 197 2.0 5.0 0.00 0.00 0.00 20 917.9
20260507023119 81 190 2.0 5.0 0.00 0.00 0.00 20 917.9
20260507023016 81 210 2.0 5.0 0.00 0.00 0.00 20 917.9
20260507022648 81 195 2.0 6.0 0.00 0.00 0.00 20 917.8
20260507022543 81 215 3.0 6.0 0.00 0.00 0.00 20 917.9
20260507022439 81 201 3.0 6.0 0.00 0.00 0.00 20 917.9
20260507022334 81 193 3.0 6.0 0.00 0.00 0.00 20 917.8
20260507022232 81 203 3.0 6.0 0.00 0.00 0.00 20 917.8
20260507021909 81 206 3.0 6.0 0.00 0.00 0.00 19 917.8
20260507021802 82 219 3.0 6.0 0.00 0.00 0.00 19 917.8
20260507021657 82 192 3.0 7.0 0.00 0.00 0.00 19 917.8
20260507021555 82 185 2.0 7.0 0.00 0.00 0.00 19 917.8
20260507021453 82 201 2.0 7.0 0.00 0.00 0.00 19 917.8
20260507021346 82 198 2.0 7.0 0.00 0.00 0.00 19 917.7
20260507021244 82 221 2.0 7.0 0.00 0.00 0.00 19 917.7
20260507021142 82 197 2.0 7.0 0.00 0.00 0.00 19 917.7
20260507021037 82 165 2.0 7.0 0.00 0.00 0.00 19 917.7
20260507020934 82 199 2.0 7.0 0.00 0.00 0.00 19 917.7
20260507020831 82 184 2.0 7.0 0.00 0.00 0.00 19 917.7
20260507020724 82 185 2.0 7.0 0.00 0.00 0.00 19 917.7
20260507020616 83 201 2.0 7.0 0.00 0.00 0.00 19 917.7
20260507020510 83 192 2.0 7.0 0.00 0.00 0.00 19 917.7
20260507020402 83 192 2.0 7.0 0.00 0.00 0.00 19 917.7
20260507020031 83 206 3.0 7.0 0.00 0.00 0.00 18 917.7
20260507015928 83 194 2.0 7.0 0.00 0.00 0.00 18 917.6
20260507015822 83 192 2.0 7.0 0.00 0.00 0.00 19 917.6
20260507015455 83 219 2.0 6.0 0.00 0.00 0.00 18 917.6
20260507014655 84 178 2.0 6.0 0.00 0.00 0.00 18 917.5
20260507014549 84 163 2.0 6.0 0.00 0.00 0.00 18 917.5
20260507014442 84 196 2.0 6.0 0.00 0.00 0.00 18 917.5
20260507014339 84 154 2.0 6.0 0.00 0.00 0.00 18 917.5
20260507014236 84 150 1.0 6.0 0.00 0.00 0.00 18 917.5
20260507014132 84 174 1.0 6.0 0.00 0.00 0.00 18 917.5
20260507014028 84 205 1.0 7.0 0.00 0.00 0.00 18 917.5
20260507013925 84 177 1.0 7.0 0.00 0.00 0.00 18 917.5
20260507013821 84 153 1.0 7.0 0.00 0.00 0.00 18 917.5
20260507013714 84 175 2.0 7.0 0.00 0.00 0.00 18 917.5
20260507013348 84 186 2.0 7.0 0.00 0.00 0.00 18 917.4
20260507013241 84 175 2.0 7.0 0.00 0.00 0.00 18 917.5
20260507013139 84 178 2.0 7.0 0.00 0.00 0.00 18 917.4
20260507013035 84 175 2.0 7.0 0.00 0.00 0.00 18 917.4
20260507012704 84 184 3.0 7.0 0.00 0.00 0.00 18 917.4
20260507012602 84 190 3.0 7.0 0.00 0.00 0.00 18 917.4
20260507012456 84 179 3.0 7.0 0.00 0.00 0.00 18 917.4
20260507012136 85 194 3.0 7.0 0.00 0.00 0.00 18 917.4
20260507012032 85 155 3.0 7.0 0.00 0.00 0.00 18 917.4
20260507011711 85 150 3.0 7.0 0.00 0.00 0.00 17 917.4
20260507011607 85 162 2.0 7.0 0.00 0.00 0.00 18 917.4
20260507011243 85 167 2.0 7.0 0.00 0.00 0.00 18 917.3
20260507010919 85 168 2.0 5.0 0.00 0.00 0.00 17 917.4
20260507010815 85 172 2.0 5.0 0.00 0.00 0.00 17 917.4
20260507010449 85 168 2.0 6.0 0.00 0.00 0.00 17 917.3
20260507010344 85 180 2.0 6.0 0.00 0.00 0.00 17 917.3
20260507010237 85 147 2.0 6.0 0.00 0.00 0.00 17 917.4
20260507010133 85 220 2.0 6.0 0.00 0.00 0.00 17 917.3
20260507010027 85 186 2.0 6.0 0.00 0.00 0.00 17 917.3
20260507005920 85 155 3.0 6.0 0.00 0.00 0.00 17 917.3
20260507005816 85 161 3.0 6.0 0.00 0.00 0.00 18 917.3
20260507005711 86 153 3.0 6.0 0.00 0.00 0.00 18 917.3
20260507005605 85 198 3.0 6.0 0.00 0.00 0.00 17 917.4
20260507005500 86 172 3.0 6.0 0.00 0.00 0.00 17 917.4
20260507005353 86 156 3.0 6.0 0.00 0.00 0.00 17 917.4
20260507005030 86 163 3.0 6.0 0.00 0.00 0.00 17 917.4
20260507004702 86 153 3.0 6.0 0.00 0.00 0.00 17 917.4
20260507004557 86 157 3.0 6.0 0.00 0.00 0.00 17 917.4
20260507004453 86 178 3.0 6.0 0.00 0.00 0.00 17 917.4
20260507004347 86 147 3.0 11.0 0.00 0.00 0.00 17 917.3
20260507004243 86 162 3.0 11.0 0.00 0.00 0.00 17 917.3
20260507004141 87 188 3.0 11.0 0.00 0.00 0.00 17 917.3
20260507004035 87 180 3.0 11.0 0.00 0.00 0.00 17 917.3
20260507003925 87 163 3.0 11.0 0.00 0.00 0.00 16 917.3
20260507003821 87 180 3.0 11.0 0.00 0.00 0.00 16 917.4
20260507003716 87 184 3.0 11.0 0.00 0.00 0.00 16 917.3
20260507003610 87 142 3.0 11.0 0.00 0.00 0.00 16 917.3
20260507003508 87 180 3.0 11.0 0.00 0.00 0.00 16 917.4
20260507003402 87 166 4.0 11.0 0.00 0.00 0.00 16 917.3
20260507003038 87 222 4.0 11.0 0.00 0.00 0.00 15 917.4
20260507002931 87 198 4.0 11.0 0.00 0.00 0.00 15 917.4
20260507002824 87 209 4.0 11.0 0.00 0.00 0.00 15 917.3
20260507002240 87 215 3.0 8.0 0.00 0.00 0.00 15 917.3
20260507001914 87 233 2.0 8.0 0.00 0.00 0.00 16 917.3
20260507001549 87 209 2.0 8.0 0.00 0.00 0.00 15 917.3
20260507001442 87 228 2.0 10.0 0.00 0.00 0.00 15 917.3
20260507001337 87 207 2.0 10.0 0.00 0.00 0.00 15 917.3
20260507001231 87 189 2.0 10.0 0.00 0.00 0.00 15 917.3
20260507001125 87 170 2.0 10.0 0.00 0.00 0.00 15 917.3
20260507001021 87 192 2.0 10.0 0.00 0.00 0.00 15 917.3
20260507000916 88 194 2.0 10.0 0.00 0.00 0.00 15 917.3
20260507000812 88 182 2.0 10.0 0.00 0.00 0.00 15 917.3
20260507000706 88 174 2.0 10.0 0.00 0.00 0.00 15 917.3
20260507000602 88 189 2.0 10.0 0.00 0.00 0.00 15 917.3
20260507000458 88 195 2.0 10.0 0.00 0.00 0.00 15 917.3
20260507000133 88 242 2.0 10.0 0.00 0.00 0.00 16 917.2
20260507000027 88 186 2.0 10.0 0.00 0.00 0.00 15 917.2
20260506235920 88 200 2.0 10.0 0.00 0.00 0.00 15 917.3
20260506235557 88 198 2.0 10.0 0.00 0.00 0.00 15 917.2
20260506235452 88 229 2.0 10.0 0.00 0.00 0.00 15 917.3
20260506234906 88 188 2.0 6.0 0.00 0.00 0.00 15 917.3
20260506234802 88 210 3.0 7.0 0.00 0.00 0.00 15 917.2
20260506234215 89 170 2.0 7.0 0.00 0.00 0.00 15 917.2
20260506234110 89 227 2.0 7.0 0.00 0.00 0.00 15 917.3
20260506234005 89 217 1.0 7.0 0.00 0.00 0.00 15 917.2
20260506233902 89 200 1.0 7.0 0.00 0.00 0.00 15 917.3
20260506233758 89 209 1.0 7.0 0.00 0.00 0.00 15 917.3
20260506233652 89 212 1.0 7.0 0.00 0.00 0.00 15 917.3
20260506233325 88 194 2.0 7.0 0.00 0.00 0.00 15 917.4
20260506233218 88 175 2.0 7.0 0.00 0.00 0.00 15 917.4
20260506233114 89 196 2.0 7.0 0.00 0.00 0.00 15 917.5
20260506233009 89 196 2.0 7.0 0.00 0.00 0.00 15 917.4
20260506232903 89 219 2.0 7.0 0.00 0.00 0.00 15 917.5
20260506232543 89 232 1.0 7.0 0.00 0.00 0.00 15 917.6
20260506232441 89 230 1.0 7.0 0.00 0.00 0.00 15 917.6
20260506232336 89 242 1.0 7.0 0.00 0.00 0.00 15 917.6
20260506232231 89 197 1.0 7.0 0.00 0.00 0.00 15 917.6
20260506232125 88 282 1.0 7.0 0.00 0.00 0.00 15 917.6
20260506232021 88 265 1.0 7.0 0.00 0.00 0.00 15 917.6
20260506231916 88 226 2.0 7.0 0.00 0.00 0.00 15 917.6
20260506231813 88 275 2.0 7.0 0.00 0.00 0.00 15 917.6
20260506231448 88 270 2.0 7.0 0.00 0.00 0.00 15 917.6
20260506231344 88 285 2.0 7.0 0.00 0.00 0.00 15 917.7
20260506231242 88 250 2.0 7.0 0.00 0.00 0.00 15 917.6
20260506231136 88 248 2.0 7.0 0.00 0.00 0.00 15 917.6
20260506231030 88 218 1.0 7.0 0.00 0.00 0.00 15 917.7
20260506230928 88 227 1.0 7.0 0.00 0.00 0.00 15 917.7
20260506230822 88 288 1.0 6.0 0.00 0.00 0.00 16 917.7
20260506230718 88 231 1.0 6.0 0.00 0.00 0.00 16 917.6
20260506230613 88 261 1.0 6.0 0.00 0.00 0.00 16 917.7
20260506230251 88 184 0.0 3.0 0.00 0.00 0.00 16 917.7
20260506230144 87 210 0.0 3.0 0.00 0.00 0.00 16 917.7
20260506230037 87 212 1.0 3.0 0.00 0.00 0.00 16 917.7
20260506225715 87 182 1.0 3.0 0.00 0.00 0.00 16 917.6
20260506225609 87 140 1.0 3.0 0.00 0.00 0.00 16 917.7
20260506225504 87 65 0.0 7.0 0.00 0.00 0.00 15 917.7
20260506225358 87 102 0.0 7.0 0.00 0.00 0.00 15 917.7
20260506225028 87 92 1.0 7.0 0.00 0.00 0.00 15 917.8
20260506224922 87 52 1.0 7.0 0.00 0.00 0.00 15 917.8
20260506224816 87 142 1.0 7.0 0.00 0.00 0.00 16 917.7
20260506224713 87 142 1.0 7.0 0.00 0.00 0.00 16 917.8
20260506224607 87 138 1.0 7.0 0.00 0.00 0.00 15 917.8
20260506224505 87 152 1.0 8.0 0.00 0.00 0.00 15 917.7
20260506224400 87 142 1.0 8.0 0.00 0.00 0.00 16 917.8
20260506224257 87 159 1.0 8.0 0.00 0.00 0.00 16 917.8
20260506224155 87 242 1.0 8.0 0.00 0.00 0.00 16 917.8
20260506224049 87 203 1.0 8.0 0.00 0.00 0.00 16 917.9
20260506223942 87 200 0.0 8.0 0.00 0.00 0.00 16 917.8
20260506223839 87 155 0.0 8.0 0.00 0.00 0.00 16 917.8
20260506223734 87 167 1.0 8.0 0.00 0.00 0.00 16 917.8
20260506223630 87 95 1.0 8.0 0.00 0.00 0.00 16 917.9
20260506223525 87 73 2.0 8.0 0.00 0.00 0.00 16 917.8
20260506223421 87 90 2.0 10.0 0.00 0.00 0.00 16 917.8
20260506223317 87 166 2.0 10.0 0.00 0.00 0.00 16 917.8
20260506223215 87 278 3.0 10.0 0.00 0.00 0.00 16 917.9
20260506223110 87 325 4.0 10.0 0.00 0.00 0.00 16 917.9
20260506223004 87 221 4.0 10.0 0.00 0.00 0.00 17 917.9
20260506222901 87 227 5.0 10.0 0.00 0.00 0.00 16 918.0
20260506222754 87 206 5.0 10.0 0.00 0.00 0.00 16 917.9
20260506222425 87 220 5.0 10.0 0.00 0.00 0.00 16 918.0
20260506222317 87 200 5.0 10.0 0.00 0.00 0.00 16 917.9
20260506222213 87 234 4.0 10.0 0.00 0.00 0.00 17 918.0
20260506222106 87 201 4.0 10.0 0.00 0.00 0.00 17 918.0
20260506222004 87 205 3.0 10.0 0.00 0.00 0.00 16 918.0
20260506221901 87 173 3.0 10.0 0.00 0.00 0.00 16 918.1
20260506221756 87 232 3.0 10.0 0.00 0.00 0.00 16 918.1
20260506221649 87 215 3.0 10.0 0.00 0.00 0.00 16 918.1
20260506221543 87 193 2.0 10.0 0.00 0.00 0.00 16 918.1
20260506221435 87 155 2.0 7.0 0.00 0.00 0.00 16 918.1
20260506221331 87 204 1.0 7.0 0.00 0.00 0.00 17 918.1
20260506221225 87 192 1.0 6.0 0.00 0.00 0.00 17 918.1
20260506221119 87 177 1.0 6.0 0.00 0.00 0.00 17 918.1
20260506221016 87 165 1.0 6.0 0.00 0.00 0.00 17 918.2
20260506220913 87 211 1.0 5.0 0.00 0.00 0.00 17 918.2
20260506220805 87 221 0.0 3.0 0.00 0.00 0.00 17 918.2
20260506220703 86 155 1.0 3.0 0.00 0.00 0.00 17 918.2
20260506220337 86 281 1.0 3.0 0.00 0.00 0.00 17 918.2
20260506220010 86 138 1.0 6.0 0.00 0.00 0.00 18 918.3
20260506215644 86 188 1.0 6.0 0.00 0.00 0.00 18 918.4
20260506215539 86 190 1.0 6.0 0.00 0.00 0.00 18 918.3
20260506215434 86 145 1.0 6.0 0.00 0.00 0.00 18 918.3
20260506215329 86 143 1.0 6.0 0.00 0.00 0.00 18 918.3
20260506215223 85 155 2.0 6.0 0.00 0.00 0.00 18 918.4
20260506214854 85 167 2.0 6.0 0.00 0.00 0.00 19 918.4
20260506214751 85 169 2.0 6.0 0.00 0.00 0.00 19 918.5
20260506214426 85 166 1.0 6.0 0.00 0.00 0.00 19 918.5
20260506214059 85 139 1.0 5.0 0.00 0.00 0.00 19 918.5
20260506213952 85 136 1.0 5.0 0.00 0.00 0.00 19 918.5
20260506213845 85 120 1.0 5.0 0.00 0.00 0.00 19 918.5
20260506213525 85 223 1.0 8.0 0.00 0.00 0.00 18 918.6
20260506213202 85 232 2.0 8.0 0.00 0.00 0.00 18 918.7
20260506213055 85 33 2.0 8.0 0.00 0.00 0.00 18 918.8
20260506212949 85 302 2.0 8.0 0.00 0.00 0.00 18 918.8
20260506212840 85 243 2.0 8.0 0.00 0.00 0.00 18 918.9
20260506212515 85 237 1.0 8.0 0.00 0.00 0.00 19 918.9
20260506212408 85 221 1.0 5.0 0.00 0.00 0.00 19 918.9
20260506212301 84 304 1.0 5.0 0.00 0.00 0.00 20 918.9
20260506212157 84 262 0.0 5.0 0.00 0.00 0.00 20 918.9
20260506212051 84 249 0.0 5.0 0.00 0.00 0.00 20 919.0
20260506211946 84 288 0.0 5.0 0.00 0.00 0.00 20 918.9
20260506211840 84 216 0.0 5.0 0.00 0.00 0.00 20 918.9
20260506211732 84 103 1.0 5.0 0.00 0.00 0.00 19 918.9
20260506211630 84 140 1.0 5.0 0.00 0.00 0.00 19 919.0
20260506211525 84 119 1.0 5.0 0.00 0.00 0.00 19 919.0
20260506211419 84 161 1.0 5.0 0.00 0.00 0.00 19 919.0
20260506211055 84 243 2.0 5.0 0.00 0.00 0.00 19 919.1
20260506210953 84 301 2.0 5.0 0.00 0.00 0.00 19 919.0
20260506210846 84 229 2.0 5.0 0.00 0.00 0.00 20 919.1
20260506210742 84 254 2.0 5.0 0.00 0.00 0.00 20 919.1
20260506210637 84 250 1.0 4.0 0.00 0.00 0.00 20 919.1
20260506210046 83 187 1.0 4.0 0.00 0.00 0.00 20 919.1
20260506205940 83 180 1.0 4.0 0.00 0.00 0.00 21 919.2
20260506205833 83 221 0.0 6.0 0.00 0.00 0.00 20 919.1
20260506205730 83 182 1.0 6.0 0.00 0.00 0.00 20 919.2
20260506205624 83 153 1.0 6.0 0.00 0.00 0.00 20 919.2
20260506205259 83 216 1.0 6.0 0.00 0.00 0.00 21 919.2
20260506205154 83 292 1.0 6.0 0.00 0.00 0.00 21 919.2
20260506205052 83 298 1.0 6.0 0.00 0.00 0.00 21 919.2
20260506204944 83 245 2.0 6.0 0.00 0.00 0.00 21 919.2
20260506204842 83 221 2.0 6.0 0.00 0.00 0.00 21 919.2
20260506204735 83 254 2.0 6.0 0.00 0.00 0.00 22 919.2
20260506204630 83 238 2.0 6.0 0.00 0.00 0.00 21 919.2
20260506204526 83 246 1.0 6.0 0.00 0.00 0.00 21 919.2
20260506203721 83 273 0.0 4.0 0.00 0.00 0.00 22 919.3
20260506203613 83 300 1.0 4.0 0.00 0.00 0.00 21 919.3
20260506203509 83 335 1.0 4.0 0.00 0.00 0.00 22 919.3
20260506203401 83 286 1.0 4.0 0.00 0.00 0.00 23 919.4
20260506203257 83 282 1.0 6.0 0.00 0.00 0.00 21 919.4
20260506202934 83 350 1.0 6.0 0.00 0.00 0.00 22 919.5
20260506202827 82 285 1.0 6.0 0.00 0.00 0.00 22 919.4
20260506202724 82 19 1.0 6.0 0.00 0.00 0.00 23 919.5
20260506202621 82 253 1.0 6.0 0.00 0.00 0.00 23 919.5
20260506202038 82 336 2.0 6.0 0.00 0.00 0.00 22 919.5
20260506201930 82 325 1.0 6.0 0.00 0.00 0.00 22 919.5
20260506201607 82 242 1.0 6.0 0.00 0.00 0.00 23 919.5
20260506201502 82 223 1.0 6.0 0.00 0.00 0.00 24 919.6
20260506201359 82 217 1.0 6.0 0.00 0.00 0.00 23 919.5
20260506201254 82 255 1.0 6.0 0.00 0.00 0.00 23 919.6
20260506201147 81 299 1.0 6.0 0.00 0.00 0.00 24 919.6
20260506201043 81 215 1.0 6.0 0.00 0.00 0.00 23 919.6
20260506200940 81 215 1.0 6.0 0.00 0.00 0.00 23 919.7
20260506200833 81 240 1.0 6.0 0.00 0.00 0.00 23 919.7
20260506200729 81 257 1.0 8.0 0.00 0.00 0.00 23 919.7
20260506200626 81 259 1.0 8.0 0.00 0.00 0.00 24 919.8